[[{"header":{"parameterUnit":"m.s-1","parameterCategory":1,"la1":30.2991,"la2":30.254,"lo1":-89.0895,"lo2":-89.0444,"dy":0.0017,"dx":0.0017,"nx":28,"ny":28,"refTime":"2023-11-17T03:00:00:Z","depth":0,"parameterNumber":2,"parameterNumberName":"U-component_of_WINDS"},"data":[0,0,0,0,0,0,0,0,0,0,0,0,0,0,0,0,0,0,0,0,0,0,0,0,0,0,0,0,0,0,0,0,0,0,0,0,0,0,0,0,0,0,0,0,0,0,0,0,0,0,0,0,0,0,0,0,0,0,-1.6623,-1.6624,0,-1.6696,-1.6697,-1.6698,-1.6656,-1.6654,-1.6652,-1.665,-1.6731,-1.6735,-1.6739,0,0,0,0,0,0,0,0,0,0,0,0,0,-1.6452,-1.6456,-1.6623,-1.6624,-1.6624,-1.6696,-1.6697,-1.6698,-1.6657,-1.6654,-1.6652,-1.6649,-1.673,-1.6735,-1.674,0,0,0,0,0,0,0,0,0,0,0,0,0,-1.6526,-1.6457,-1.6623,-1.6612,-1.6612,-1.6696,-1.6697,-1.6698,-1.6657,-1.6654,-1.6651,-1.6648,-1.6728,-1.6734,-1.674,-1.684,0,0,-1.6759,-1.6762,0,0,0,0,0,0,0,0,-1.6522,-1.6533,-1.6613,-1.6613,-1.6613,-1.6664,-1.6667,-1.6746,-1.6658,-1.664,-1.665,-1.6647,-1.6712,-1.6719,-1.674,-1.6844,-1.6847,-1.676,-1.6763,-1.6766,-1.6768,0,0,0,0,0,0,0,-1.6517,-1.6529,-1.6652,-1.6614,-1.6614,-1.6606,-1.6613,-1.6682,-1.6693,-1.6642,-1.6639,-1.6648,-1.6711,-1.6734,-1.6741,-1.6848,-1.6759,-1.6765,-1.6769,-1.6771,-1.704,-1.7044,0,0,0,0,0,0,-1.6512,-1.6525,-1.665,-1.6654,-1.6559,-1.6612,-1.6619,-1.6651,-1.6692,-1.6695,-1.665,-1.6645,-1.6725,-1.6734,-1.6744,-1.6865,-1.6766,-1.6772,-1.6775,-1.7037,-1.7041,-1.7045,0,0,0,0,0,0,-1.6508,-1.6523,-1.6647,-1.6589,-1.6604,-1.6618,-1.6653,-1.6654,-1.6676,-1.6698,-1.6701,-1.6671,-1.6723,-1.6735,-1.6817,-1.6867,-1.6774,-1.678,-1.7033,-1.7038,-1.7043,-1.7107,0,0,0,0,0,0,-1.6503,-1.6522,-1.6559,-1.659,-1.6607,-1.6716,-1.6656,-1.6658,-1.6686,-1.6681,-1.6718,-1.6722,-1.6721,-1.6808,-1.6823,-1.6874,-1.6785,-1.7028,-1.7035,-1.7041,-1.7101,-1.7114,-1.7125,0,0,0,0,0,-1.6498,-1.6575,-1.6561,-1.6576,-1.6653,-1.6719,-1.6729,-1.6726,-1.6691,-1.6729,-1.6743,-1.6721,-1.6859,-1.6816,-1.6833,-1.6887,-1.7025,-1.7033,-1.7041,-1.7095,-1.7111,-1.7125,0,0,0,0,0,0,-1.6551,-1.6579,-1.6564,-1.6653,-1.6684,-1.6712,-1.676,-1.6743,-1.6786,-1.6779,-1.6775,-1.6784,-1.6868,-1.6885,-1.6838,-1.6986,-1.6937,-1.6948,-1.6972,-1.6988,-1.7,-1.6995,-1.679,0,0,0,0,0,-1.6573,-1.6623,-1.6645,-1.6722,-1.6738,-1.6746,-1.6775,-1.6769,-1.6802,-1.6816,-1.6836,-1.687,-1.6921,-1.6955,-1.7003,-1.7102,-1.7111,-1.7148,-1.716,-1.717,-1.7181,-1.7236,-1.7253,-1.707,-1.707,-1.707,0,0,-1.662,-1.6641,-1.6673,-1.6733,-1.6756,-1.681,-1.6758,-1.6816,-1.6857,-1.6825,-1.6903,-1.6919,-1.6957,-1.7048,-1.7089,-1.7065,-1.7233,-1.718,-1.7188,-1.7193,-1.7246,-1.7263,-1.7279,-1.7076,-1.7075,-1.7074,0,0,-1.6732,-1.6752,-1.6819,-1.6843,-1.6878,-1.6884,-1.69,-1.6931,-1.694,-1.7017,-1.6995,-1.7044,-1.7131,-1.716,-1.7186,-1.731,-1.7292,-1.7326,-1.7391,-1.7445,-1.746,-1.7472,-1.7519,-1.7535,-1.7336,-1.7336,-1.7336,0,-1.6786,-1.6864,-1.6856,-1.6916,-1.6945,-1.6916,-1.6985,-1.701,-1.706,-1.7081,-1.7053,-1.7163,-1.7187,-1.7285,-1.7315,-1.7336,-1.7356,-1.7322,-1.7458,-1.7471,-1.7483,-1.7527,-1.7544,-1.734,-1.7339,-1.7339,-1.7339,0,-1.693,-1.6984,-1.7034,-1.7082,-1.7115,-1.718,-1.7184,-1.7219,-1.7211,-1.722,-1.73,-1.7327,-1.7381,-1.7403,-1.7396,-1.7501,-1.7485,-1.7457,-1.7408,-1.7504,-1.7546,-1.7562,-1.7346,-1.7344,-1.7343,-1.7342,0,0,-1.7079,-1.7121,-1.714,-1.7161,-1.7199,-1.7242,-1.7306,-1.7357,-1.7388,-1.7424,-1.7479,-1.7554,-1.7529,-1.7559,-1.7554,-1.7602,-1.7701,-1.7568,-1.7569,-1.7594,-1.782,-1.7843,-1.7862,-1.7688,-1.7691,-1.7693,-1.7818,0,-1.7195,-1.7305,-1.73,-1.7404,-1.7456,-1.743,-1.7486,-1.7516,-1.7526,-1.7573,-1.7585,-1.7639,-1.76,-1.7618,-1.7663,-1.7679,-1.7746,-1.7669,-1.7742,-1.7745,-1.7735,-1.7883,-1.7907,-1.8023,-1.7834,-1.7837,-1.7839,0,-1.7346,-1.7385,-1.7494,-1.7524,-1.7546,-1.7596,-1.7643,-1.7687,-1.7722,-1.7726,-1.7759,-1.7748,-1.7815,-1.7762,-1.7856,-1.7804,-1.7833,-1.7845,-1.785,-1.7858,-1.7799,-1.7898,-1.806,-1.8078,-1.7864,-1.7862,-1.786,0,-1.7446,-1.7527,-1.7602,-1.7622,-1.7659,-1.7695,-1.7712,-1.7743,-1.7775,-1.7816,-1.7837,-1.7887,-1.7915,-1.7954,-1.7957,-1.7918,-1.8053,-1.8,-1.8061,-1.8061,-1.8092,-1.8091,-1.8263,-1.8107,-1.8107,-1.8107,-1.8107,0,-1.7578,-1.7646,-1.7648,-1.7695,-1.7772,-1.7766,-1.7842,-1.7856,-1.7884,-1.7935,-1.7916,-1.7964,-1.7964,-1.8014,-1.8017,-1.8096,-1.8108,-1.8115,-1.8116,-1.8118,-1.8118,-1.8139,-1.8132,-1.8111,-1.811,-1.811,-1.8109,0,-1.7704,-1.7708,-1.7789,-1.7817,-1.7826,-1.7881,-1.7906,-1.7952,-1.7959,-1.8024,-1.8039,-1.8053,-1.8111,-1.8117,-1.8185,-1.8187,-1.8283,-1.8274,-1.8271,-1.8271,-1.8332,-1.8327,-1.8526,-1.8553,-1.8378,-1.8379,-1.8381,0,-1.7789,-1.7841,-1.7874,-1.7906,-1.7925,-1.7976,-1.8008,-1.8004,-1.8039,-1.8082,-1.8123,-1.8179,-1.8224,-1.8318,-1.8336,-1.8388,-1.8381,-1.8447,-1.8389,-1.8391,-1.8385,-1.8383,-1.8389,-1.846,-1.8461,-1.8463,-1.8464,0,-1.794,-1.7939,-1.7985,-1.8031,-1.8069,-1.8106,-1.8141,-1.8169,-1.817,-1.8209,-1.8268,-1.8302,-1.8371,-1.8428,-1.848,-1.85,-1.8484,-1.8482,-1.8499,-1.8504,-1.8501,-1.8506,-1.8305,-1.8478,-1.8477,-1.8476,-1.8475,-1.8474,-1.805,-1.8095,-1.8126,-1.8177,-1.8203,-1.8236,-1.828,-1.8293,-1.8341,-1.8396,-1.8391,-1.8457,-1.8491,-1.8558,-1.8582,-1.8635,-1.8613,-1.8638,-1.8645,-1.8651,-1.8659,-1.8491,-1.8644,-1.8644,-1.8643,-1.8643,-1.8643,0,-1.8202,-1.822,-1.8267,-1.8316,-1.8357,-1.8335,-1.8372,-1.8409,-1.8466,-1.8499,-1.8543,-1.8611,-1.8666,-1.8687,-1.8742,-1.878,-1.8774,-1.8794,-1.8793,-1.8798,-1.8674,-1.8654,-1.8798,-1.8798,-1.8798,-1.8798,-1.8798,-1.8798,-1.8285,-1.8362,-1.8365,-1.8454,-1.8472,-1.8535,-1.8558,-1.8589,-1.8615,-1.8692,-1.8737,-1.8749,-1.8778,-1.8834,-1.8885,-1.889,-1.8912,-1.8936,-1.8939,-1.8822,-1.8807,-1.8792,-1.8774,-1.8941,-1.8941,-1.9059,-1.906,-1.9061]},{"header":{"parameterUnit":"m.s-1","parameterCategory":1,"la1":30.2991,"la2":30.254,"lo1":-89.0895,"lo2":-89.0444,"dy":0.0017,"dx":0.0017,"nx":28,"ny":28,"refTime":"2023-11-17T03:00:00:Z","depth":0,"parameterNumber":3,"parameterNumberName":"V-component_of_WINDS"},"data":[0,0,0,0,0,0,0,0,0,0,0,0,0,0,0,0,0,0,0,0,0,0,0,0,0,0,0,0,0,0,0,0,0,0,0,0,0,0,0,0,0,0,0,0,0,0,0,0,0,0,0,0,0,0,0,0,0,0,-2.4231,-2.4232,0,-2.4253,-2.4253,-2.4253,-2.4207,-2.4206,-2.4204,-2.4203,-2.4224,-2.4226,-2.4228,0,0,0,0,0,0,0,0,0,0,0,0,0,-2.4149,-2.415,-2.4231,-2.4232,-2.4232,-2.4253,-2.4253,-2.4253,-2.4207,-2.4206,-2.4204,-2.4202,-2.4223,-2.4226,-2.4228,0,0,0,0,0,0,0,0,0,0,0,0,0,-2.4179,-2.4151,-2.4231,-2.4211,-2.421,-2.4253,-2.4253,-2.4254,-2.4208,-2.4205,-2.4203,-2.4201,-2.4223,-2.4226,-2.4228,-2.4292,0,0,-2.4237,-2.4239,0,0,0,0,0,0,0,0,-2.4177,-2.4182,-2.4214,-2.4213,-2.4211,-2.4225,-2.4232,-2.4266,-2.4208,-2.4209,-2.4203,-2.42,-2.4226,-2.4229,-2.4238,-2.4293,-2.4294,-2.4238,-2.424,-2.4241,-2.4242,0,0,0,0,0,0,0,-2.4175,-2.4181,-2.424,-2.4215,-2.4213,-2.4201,-2.4203,-2.4238,-2.423,-2.4208,-2.4205,-2.4208,-2.4225,-2.4235,-2.4238,-2.4294,-2.4238,-2.424,-2.4242,-2.4243,-2.4401,-2.4403,0,0,0,0,0,0,-2.4176,-2.4179,-2.4239,-2.424,-2.4188,-2.4204,-2.4206,-2.4223,-2.4229,-2.4228,-2.421,-2.4206,-2.4231,-2.4234,-2.4238,-2.4313,-2.4241,-2.4244,-2.4245,-2.4398,-2.4401,-2.4404,0,0,0,0,0,0,-2.4174,-2.4181,-2.4238,-2.4209,-2.4215,-2.4208,-2.4227,-2.4224,-2.4234,-2.4231,-2.4229,-2.4222,-2.4229,-2.4234,-2.4279,-2.4313,-2.4245,-2.4248,-2.4396,-2.4399,-2.4403,-2.4462,0,0,0,0,0,0,-2.4172,-2.4181,-2.4206,-2.421,-2.4217,-2.4279,-2.4229,-2.4226,-2.424,-2.4235,-2.4241,-2.424,-2.4228,-2.4274,-2.4282,-2.4315,-2.425,-2.4392,-2.4397,-2.4402,-2.4457,-2.4467,-2.4475,0,0,0,0,0,-2.4169,-2.4221,-2.4207,-2.4215,-2.4247,-2.4281,-2.4285,-2.427,-2.4243,-2.4267,-2.4264,-2.424,-2.4308,-2.4279,-2.4287,-2.4322,-2.439,-2.4396,-2.4401,-2.4452,-2.4465,-2.4475,0,0,0,0,0,0,-2.4221,-2.4221,-2.4206,-2.4261,-2.4271,-2.4273,-2.4303,-2.4284,-2.4302,-2.4296,-2.4277,-2.4279,-2.4327,-2.4329,-2.4297,-2.4383,-2.4344,-2.4351,-2.438,-2.4392,-2.4402,-2.44,-2.4252,0,0,0,0,0,-2.4239,-2.4267,-2.4265,-2.4314,-2.432,-2.4311,-2.4325,-2.4312,-2.4322,-2.4326,-2.4327,-2.4337,-2.436,-2.4376,-2.4398,-2.4456,-2.4457,-2.4484,-2.4494,-2.4501,-2.4508,-2.4539,-2.4551,-2.4422,-2.4422,-2.4422,0,0,-2.4276,-2.428,-2.4298,-2.4324,-2.4331,-2.4359,-2.4315,-2.4347,-2.4368,-2.4331,-2.4373,-2.4374,-2.4384,-2.4435,-2.4458,-2.4438,-2.4544,-2.4508,-2.4514,-2.4517,-2.4546,-2.4558,-2.4569,-2.4425,-2.4425,-2.4424,0,0,-2.4359,-2.4364,-2.4406,-2.4413,-2.4423,-2.4417,-2.4426,-2.4431,-2.443,-2.4472,-2.4445,-2.4469,-2.451,-2.4518,-2.4527,-2.4612,-2.459,-2.4619,-2.4669,-2.4699,-2.4709,-2.4718,-2.4748,-2.4759,-2.4626,-2.4626,-2.4626,0,-2.4404,-2.4446,-2.4429,-2.4463,-2.4475,-2.4443,-2.4484,-2.4492,-2.4509,-2.4517,-2.4495,-2.4545,-2.455,-2.4603,-2.4623,-2.4632,-2.4642,-2.4619,-2.4709,-2.4718,-2.4726,-2.4755,-2.4766,-2.4629,-2.4629,-2.4629,-2.4628,0,-2.4501,-2.4531,-2.4562,-2.458,-2.4595,-2.4632,-2.462,-2.4638,-2.4624,-2.462,-2.4662,-2.4666,-2.4687,-2.4699,-2.4686,-2.475,-2.4737,-2.4713,-2.4673,-2.4742,-2.4769,-2.4779,-2.4634,-2.4633,-2.4632,-2.4631,0,0,-2.4618,-2.4625,-2.4637,-2.4644,-2.4652,-2.4675,-2.471,-2.4731,-2.4747,-2.4759,-2.4788,-2.4823,-2.48,-2.481,-2.4797,-2.4824,-2.489,-2.4795,-2.4795,-2.4813,-2.4961,-2.498,-2.4993,-2.4876,-2.4878,-2.4879,-2.496,0,-2.47,-2.4762,-2.4747,-2.4807,-2.4834,-2.4804,-2.4834,-2.4843,-2.4839,-2.4861,-2.4857,-2.4882,-2.4849,-2.4856,-2.488,-2.4877,-2.492,-2.4871,-2.4902,-2.4904,-2.4902,-2.5007,-2.5028,-2.5104,-2.4971,-2.4972,-2.4974,0,-2.4804,-2.482,-2.4884,-2.4888,-2.4898,-2.4926,-2.4944,-2.4965,-2.4974,-2.4969,-2.4981,-2.4963,-2.4997,-2.4957,-2.5004,-2.4971,-2.4982,-2.4983,-2.4985,-2.4988,-2.4944,-2.5013,-2.5128,-2.514,-2.499,-2.4989,-2.4987,0,-2.4883,-2.4921,-2.4964,-2.4971,-2.4976,-2.4997,-2.5,-2.5006,-2.5019,-2.5034,-2.5043,-2.5062,-2.5072,-2.5087,-2.5074,-2.5046,-2.5123,-2.5082,-2.512,-2.5121,-2.5138,-2.5138,-2.5257,-2.5145,-2.5145,-2.5145,-2.5145,0,-2.4977,-2.5017,-2.4999,-2.5026,-2.507,-2.5052,-2.5095,-2.5095,-2.51,-2.5126,-2.51,-2.5124,-2.5105,-2.5127,-2.5117,-2.5158,-2.5162,-2.516,-2.5157,-2.5162,-2.5163,-2.517,-2.5165,-2.5148,-2.5147,-2.5147,-2.5146,0,-2.5073,-2.5063,-2.5108,-2.5109,-2.511,-2.5142,-2.5143,-2.5167,-2.5161,-2.5193,-2.52,-2.5191,-2.5216,-2.5204,-2.523,-2.5223,-2.5275,-2.5265,-2.5273,-2.527,-2.5309,-2.5306,-2.5439,-2.5455,-2.5332,-2.5333,-2.5334,0,-2.5134,-2.5164,-2.5168,-2.5183,-2.5188,-2.5213,-2.5226,-2.5209,-2.5224,-2.5235,-2.5258,-2.5281,-2.5298,-2.5339,-2.5335,-2.5355,-2.5345,-2.539,-2.5347,-2.5352,-2.5346,-2.5344,-2.5347,-2.5398,-2.54,-2.5401,-2.5402,0,-2.5242,-2.5236,-2.5256,-2.5275,-2.5292,-2.5306,-2.5317,-2.5331,-2.5314,-2.5332,-2.5357,-2.5371,-2.5397,-2.542,-2.5437,-2.5439,-2.5418,-2.5415,-2.5425,-2.5432,-2.5435,-2.5434,-2.5296,-2.5412,-2.5411,-2.5411,-2.541,-2.541,-2.5323,-2.5348,-2.5355,-2.5378,-2.5385,-2.5396,-2.5419,-2.5416,-2.5437,-2.5457,-2.5445,-2.5475,-2.5481,-2.5502,-2.5507,-2.553,-2.5512,-2.5526,-2.553,-2.5534,-2.5539,-2.5431,-2.5533,-2.5532,-2.5532,-2.5532,-2.5531,0,-2.543,-2.5433,-2.5455,-2.5472,-2.549,-2.5468,-2.5479,-2.5496,-2.5523,-2.5531,-2.5548,-2.5577,-2.5598,-2.5595,-2.5615,-2.5634,-2.5624,-2.5639,-2.5638,-2.5639,-2.5554,-2.5544,-2.5647,-2.5647,-2.5647,-2.5647,-2.5647,-2.5647,-2.5488,-2.553,-2.5524,-2.5568,-2.557,-2.5599,-2.5608,-2.5618,-2.5624,-2.5657,-2.5675,-2.5673,-2.5676,-2.5696,-2.5715,-2.5713,-2.5722,-2.5741,-2.5735,-2.5656,-2.5645,-2.5634,-2.5624,-2.5742,-2.5743,-2.5818,-2.5819,-2.582]}]]